Location: Bushey
(51.6333°N, 0.3667°W)
Time: 14:08:01
(UTC+00:00)

Ariane Rocket - Pass Details

Date: 03 March 2021
Orbit: 759 x 771 km, 98.7° (Epoch: 11 April)

Event Time Altitude Azimuth Distance (km) Brightness Sun altitude
Exits shadow 20:22:15 22° 190° (S) 1,633 4.5 -24.7°
Maximum altitude 20:25:24 54° 259° (W) 939 3.6 -25.1°
Drops below altitude 10° 20:30:25 10° 337° (NNW) 2,324 6.1 -25.8°
Sets 20:32:48 0° 342° (NNW) 3,254 6.8 -26.2°
